This is the latest recevied weather packets stored in our database for station/object AK4NG. If no packets are shown the sender has not sent any weather packets the latest 10 day(s).
| Time | Temp. | Humidity | Pressure | Rain* | Wind** | Luminosity | Snow |
|---|---|---|---|---|---|---|---|
| 1777602911 | 17.78° C | 87% | 1013.6 hPa | 0 mm | - | 0 W/m² | - |
| 1777602606 | 17.78° C | 87% | 1013.6 hPa | 0 mm | - | 0 W/m² | - |
| 1777602301 | 17.78° C | 88% | 1013.7 hPa | 0 mm | - | 0 W/m² | - |
| 1777601997 | 17.78° C | 88% | 1013.6 hPa | 0 mm | - | 0 W/m² | - |
| 1777601692 | 17.78° C | 86% | 1013.3 hPa | 0 mm | - | 0 W/m² | - |
| 1777601388 | 17.78° C | 86% | 1013.4 hPa | 0 mm | - | 0 W/m² | - |
| 1777601084 | 17.78° C | 87% | 1013.3 hPa | 0 mm | - | 0 W/m² | - |
| 1777600782 | 17.78° C | 88% | 1013.4 hPa | 0 mm | - | 0 W/m² | - |
| 1777600477 | 17.78° C | 87% | 1013.3 hPa | 0 mm | - | 0 W/m² | - |
| 1777600173 | 17.78° C | 88% | 1013.2 hPa | 0 mm | - | 0 W/m² | - |
| 1777599869 | 17.78° C | 89% | 1013.1 hPa | 0 mm | - | 0 W/m² | - |
| 1777599565 | 17.78° C | 90% | 1013.1 hPa | 0 mm | - | 0 W/m² | - |
| 1777599262 | 17.78° C | 89% | 1013.2 hPa | 0 mm | - | 0 W/m² | - |
| 1777598958 | 17.78° C | 86% | 1013.2 hPa | 0 mm | - | 0 W/m² | - |
| 1777598656 | 17.78° C | 85% | 1013.2 hPa | 0 mm | - | 0 W/m² | - |
| 1777598351 | 17.78° C | 86% | 1013.1 hPa | 0 mm | - | 0 W/m² | - |
| 1777598050 | 17.78° C | 87% | 1013 hPa | 0 mm | - | 0 W/m² | - |
| 1777597749 | 17.78° C | 86% | 1013.1 hPa | 0 mm | - | 0 W/m² | - |
| 1777597445 | 17.78° C | 85% | 1013 hPa | 0 mm | - | 0 W/m² | - |
| 1777597140 | 17.78° C | 85% | 1013.1 hPa | 0 mm | - | 0 W/m² | - |
| 1777596837 | 17.78° C | 85% | 1012.9 hPa | 0 mm | - | 0 W/m² | - |
| 1777596532 | 17.78° C | 87% | 1012.8 hPa | 0 mm | - | 0 W/m² | - |
| 1777596230 | 18.33° C | 87% | 1012.7 hPa | 0 mm | - | 0 W/m² | - |
| 1777595927 | 18.33° C | 87% | 1012.6 hPa | 0 mm | - | 0 W/m² | - |
| 1777595621 | 18.33° C | 87% | 1012.6 hPa | 0 mm | - | 0 W/m² | - |
* Rain latest hour (hover to see other rain measurements)
** Current wind speed in m/s (hover to see current wind gust speed)